Regional Weather Roundup
Issued by NWS

Home | Current Version | Previous Version | Text Only | Print | Product List | Glossary Off
Versions: 1 2 3 4 5 6 7 8 9 10 11 12 13 14 15 16 17 18 19 20 21 22 23 24 25 26 27 28 29 30 31 32 33 34 35 36 37 38 39 40 41 42 43 44 45 46 47 48 49 50

000
ASUS45 KABQ 272310
RWRNM
NEW MEXICO REGIONAL WEATHER ROUNDUP
NATIONAL WEATHER SERVICE ALBUQUERQUE NM
500 PM MDT WED APR 27 2016

NOTE: "FAIR" MEANS FEW OR NO CLOUDS BELOW 12,000 FEET AGL WITH NO
       SIGNIFICANT WEATHER OR OBSTRUCTIONS TO VISION.

      THIS PRODUCT IS RELEASED AS TWO VERSIONS.  ONE VERSION NEAR
      THE TOP OF THE HOUR CONTAINING PRELIMINARY DATA FROM ALBUQUERQUE
      AND OTHER STATIONS.  A FINAL VERSION WITH ADDITIONAL DATA IS
      ISSUED ABOUT 10 MINUTES AFTER THE HOUR.

NMZ501-503-504-510>518-280000-
NORTHWEST PLATEAU/NORTHCENTRAL MOUNTAINS

CITY           SKY/WX    TMP DP  RH WIND       PRES   REMARKS
FARMINGTON     FAIR      61  25  25 SW9       29.76F
LOS ALAMOS     PTSUNNY   59  21  23 SW6       29.83S
SANTA FE       FAIR      66  22  18 W18G28    29.78F
TAOS           PTSUNNY   57  19  23 W9G20     29.81S
ANGEL FIRE     FAIR      51  19  29 SW17G24   29.84F

$$
NMZ402-403-502-505>509-280000-
WESTCENTRAL MOUNTAINS/SOUTHWEST MOUNTAINS

CITY           SKY/WX    TMP DP  RH WIND       PRES   REMARKS
GALLUP         PTSUNNY   62  21  20 SW14      29.80F
GRANTS         CLOUDY    65  17  16 SW5G12    29.81F
SILVER CITY      N/A     68  14  12 W17G24    29.85F

$$
NMZ407-409-411-412-280000-
SOUTHERN DESERTS

CITY           SKY/WX    TMP DP  RH WIND       PRES   REMARKS
LORDSBURG      FAIR      75  18  11 SW9G21    29.78F
DEMING         FAIR      78  14   9 W13G23    29.76F
LAS CRUCES     FAIR      77  13   9 W13G22    29.79F
HOLLOMAN AFB   FAIR      75  15  10 SW10      29.74F
ALAMOGORDO     FAIR      75  16  10 SW14G24   29.77F
T OR C         FAIR      74  15  10 S25G32    29.71F

$$
NMZ519>523-280000-
CENTRAL VALLEYS/CENTRAL HIGHLANDS

CITY           SKY/WX    TMP DP  RH WIND       PRES   REMARKS
ALBUQUERQUE    PTSUNNY   66  22  18 W12       29.75F
DOUBLE EAGLE   PTSUNNY   68  25  19 W16       29.77F
MORIARTY ARPT  PTSUNNY   68  17  14 W14G23    29.80F
CLINES CORNERS FAIR      61  21  21 W21G33    29.80F
BELEN          FAIR      72  16  11 S9G17     29.74F
SOCORRO        PTSUNNY   74  21  13 S18       29.72F

$$
NMZ524>526-539-540-280000-
SOUTHCENTRAL MOUNTAINS

CITY           SKY/WX    TMP DP  RH WIND       PRES   REMARKS
RUIDOSO          N/A     63  18  17 SW17G26   29.86F

$$
NMZ527>531-280000-
NORTHEAST HIGHLANDS/NORTHEAST PLAINS

CITY           SKY/WX    TMP DP  RH WIND       PRES   REMARKS
LAS VEGAS      FAIR      63  22  20 SW17G28   29.76S
RATON          CLOUDY    63  17  17 MISG      29.71F
CLAYTON        FAIR      62  32  32 SE22G29   29.75F

$$
NMZ532>537-280000-
EASTCENTRAL PLAINS

CITY           SKY/WX    TMP DP  RH WIND       PRES   REMARKS
TUCUMCARI      FAIR      73  26  17 SE13G21   29.66F
CANNON AFB     FAIR      75  23  14 SW12G20   29.71F
CLOVIS AIRPORT FAIR      73  27  17 W13G24    29.73F

$$
NMZ028-029-538-280000-
SOUTHEAST PLAINS

CITY           SKY/WX    TMP DP  RH WIND       PRES   REMARKS
ROSWELL        FAIR      81  19  10 SE3       29.67F
ARTESIA        FAIR      82  19   9 SW16      29.68F
CARLSBAD       FAIR      82  16   8 S10       29.69F
HOBBS          SUNNY     79  16   9 SW15G23   29.74F


$$




USA.gov is the U.S. government's official web portal to all federal, state and local government web resources and services.